STARLINK-5688 (55479 NORAD) Tracking and Keplerian Element Data

This shows tracking and keplerian element data for the satellite.

Feedback or suggestion? Click here.




ElementValue
Catalog55479
NameSTARLINK-5688
Epoch Orbit831
Epoch Day85.15695044
Epoch Year2023
RAAN76.1465
Inclination43.0023
Eccentricity0.0001568
Argument of Perigee290.1893
Mean Anonmoly69.8806
Mean Motion15.7135044
Decay Rate-1.836E-05
L11 55479U 23015AG 23085.15695044 -.00001836 00000+0 -10557-4 0 9994
L22 55479 43.0023 76.1465 0001568 290.1893 69.8806 15.71350440 8314



Live tracking and technical data element details for STARLINK-5688 (NORAD 55479). STARLINK-5688 can be tracked NOW for your location showing map with azimuth and elevation plus other details from your city location.







IsCatalogInMostPopularTable: catalog: 55479, numindb: -1

Insert: records affected: 1


GetName: 55479 STARLINK-5688

Hit Count: inserted at: Tue, 28 Mar 2023 02:13:21 GMT